Вернуться в каталог

FENGYUN 1C DEB

АктивенSSO
NORAD 33720·DEBRIS·🇨🇳 China

Запущен May 10, 1999 с Taiyuan Satellite Launch Center

Loading…

Ближайшие Пролёты (ближайшие 24 часа)

TLE

СвежийSource: Space-Track

Эпоха: Sep 11, 2026, 05:22 UTC

1 33720U 99025DHH 26254.22412263  .00001117  00000-0  33930-3 0  9992
2 33720  98.2502 252.8299 0078861 324.2438  35.3486 14.42280373972827

Отслеживайте FENGYUN 1C DEB в реальном времени с AllMySat

Download on the App Store